TDRS 12

Last updated on Sun Dec 14 2025 00:02:41 GMT+0000 (Coordinated Universal Time)

1 39504U 14004A 25347.10615366 -.00000260 00000+0 00000+0 0 9996 2 39504 3.8057 15.7007 0007519 246.9112 176.4615 1.00263603 42415
UTC large
Height (km)
Speed (km/s)
/
Latitude / Longitude
Inclination (degrees)
Orbital Period (minutes)
Azimuth
Elevation
Range (km)
Doppler Factor

Next 0 passes for location: London (51.5072 / 0.1276)

Sorry there are no passes over London.